Home > Weather > Binghamton > Past weeks

Flag for U.S.A. Weather for the Past 2 Weeks in Binghamton, New York, U.S.A.

Now
21 °F

Clear.


Feels Like: 13 °F
Forecast: 22 / 40 °F
Wind: 6 mph from Southwest

Location: Binghamton Regional Airport

Current Time: Feb 6, 2016 at 7:07:48 AM

Latest Report: Feb 6, 2016 at 5:53 AM


Visibility: 10 mi

Pressure: 30.31 "Hg

Humidity: 74%

Dew point: 14 °F

Location of BinghamtonLocation

Historic Weather in Binghamton — Graph

°F

Binghamton Temperature Yesterday

Maximum temperature yesterday: 30 °F (at 12:53 AM)
Minimum temperature yesterday: 23 °F (at 11:53 PM)
Average temperature yesterday: 27 °F

High & Low Weather Summary for the Past Weeks

 TemperatureHumidityPressure
High53 °F (Jan 31, 3:53 PM)97% (Feb 3, 12:53 PM)30.37 "Hg (Feb 3, 12:53 PM)
Low8 °F (Jan 22, 5:53 AM)32% (Jan 30, 2:53 PM)29.46 "Hg (Jan 29, 5:53 AM)
Average31 °F67%29.98 "Hg
* Reported Jan 22 5:53 AM — Feb 6 5:53 AM, Binghamton, Weather by CustomWeather, © 2016

Note: Actual official high and low records may vary slightly from our data, if they occured in-between our weather recording intervals... More about our weather records

Advertising

Binghamton Weather History for the Previous 24 Hours

 ConditionsComfort  
Time TempWeatherWind HumidityBarometerVisibility
5:53 AM
Sat, Feb 6
21 °FClear.6 mph74%30.31 "Hg10 mi
4:53 AM21 °FClear.8 mph74%30.31 "Hg10 mi
3:53 AM21 °FClear.7 mph74%30.32 "Hg10 mi
2:53 AM21 °FClear.8 mph78%30.31 "Hg10 mi
1:53 AM21 °FClear.7 mph78%30.31 "Hg10 mi
12:53 AM21 °FClear.8 mph78%30.31 "Hg10 mi
11:53 PM
Fri, Feb 5
23 °FClear.7 mph74%30.31 "Hg10 mi
10:53 PM24 °FPartly cloudy.5 mph75%30.31 "Hg10 mi
9:53 PM24 °FOvercast.5 mph71%30.32 "Hg10 mi
8:53 PM24 °FPassing clouds.3 mph71%30.32 "Hg10 mi
7:53 PM24 °FClear.6 mph71%30.31 "Hg10 mi
6:53 PM25 °FClear.7 mph66%30.31 "Hg10 mi
5:53 PM26 °FPassing clouds.9 mph63%30.29 "Hg10 mi
4:53 PM27 °FPartly sunny.9 mph61%30.28 "Hg10 mi
3:53 PM28 °FBroken clouds.13 mph58%30.25 "Hg10 mi
2:53 PM27 °FPassing clouds.16 mph61%30.22 "Hg10 mi
1:53 PM30 °FScattered clouds.16 mph54%30.20 "Hg10 mi
12:53 PM28 °FCloudy.16 mph64%30.19 "Hg10 mi
11:53 AM30 °FOvercast.17 mph56%30.19 "Hg10 mi
10:53 AM30 °FOvercast.13 mph59%30.22 "Hg10 mi
9:53 AM28 °FPartly sunny.15 mph69%30.20 "Hg10 mi
8:53 AM28 °FPartly sunny.13 mph69%30.15 "Hg10 mi
7:53 AM28 °FPassing clouds.14 mph66%30.18 "Hg10 mi
Weather by CustomWeather, © 2016

See weather overviewHow to use our weather pages